Location: Bois de la Silve
(44.4667°N, 6.7833°E)
Time: 04:40:35
(UTC+00:00)

Meteor 1-11 Rocket - Pass Details

Date: 14 July 2020
Orbit: 831 x 915 km, 81.2° (Epoch: 06 August)

Event Time Altitude Azimuth Distance (km) Brightness Sun altitude
Exits shadow 02:04:16 24° 200° (SSW) 1,652 4.6 -16.0°
Maximum altitude 02:07:39 73° 281° (W) 871 3.7 -15.7°
Drops below altitude 10° 02:13:11 10° 7° (N) 2,452 7.1 -15.1°
Sets 02:15:37 0° 9° (N) 3,393 8.0 -14.8°
